Location: Monteux
(44.0348°N, 4.9972°E)
Time: 18:09:08
(UTC+00:00)

CENTAUR R/B - Pass Details

Date: 30 November 2020
Orbit: 750 x 1438 km, 63.4° (Epoch: 11 January)

Event Time Altitude Azimuth Distance (km) Brightness Sun altitude
Rises 18:46:41 0° 209° (SSW) 3,353 5.7 -28.7°
Reaches altitude 10° 18:48:58 10° 208° (SSW) 2,490 5.0 -29.1°
Enters shadow 18:53:41 61° 186° (S) 1,057 2.6 -30.0°
